DELTA 1 R/B, 6921

Orbit data source: Space-Track

DELTA 1 R/B, 6921 is space debris in SSO originally from a launch on Tue, 06 Nov 1973 UTC launched from the Air Force Western Test Range (AFWTR). Debris objects in space refer to the collection of defunct objects orbiting the Earth. Examples of debris include non-operational satellites, rocket bodies, and fragments generated from explosions, collisions, or faulty payload assembly.

Loading next visibility...
Identifier
6921, 1973-086B
Orbit
SSO
Country
Flag of USUS
Related business
Manufacturer
Aerojet
Mission
Spacecraft
Bus & Motor
DSV-3E-5, AJ10-118F
Mass
756 kg wet, 756 kg dry
Launch date (UTC)
1973-11-06 (52 years ago)
Launch vehicle
Unknown
Launch site
Air Force Western Test Range (AFWTR)
Object type
Payload
Rocket body
Debris
Shape & HBR
Unknown
Radar Cross Section
Large (>1 m²)

Expand to show TLE details & history
Last TLE update: 18 hours ago

TLE from 18 hours ago
0 DELTA 1 R/B
1 06921U 73086B   25347.99453975 -.00000035  00000-0  86054-4 0  9990
2 06921 102.3609  11.4612 0014717 246.3589 113.5927 12.37063608367430
Epoch: 2025-12-13T23:52Z
TLE epoch observation values (Epoch: 2025-12-13T23:52:08.234Z)
Latitude
0.00002°
Longitude
-69.48694°
Altitude
1,526.273 km
Speed
7.101 km/s
True Right ascension
00h 45m 50s
True Declination
0° 00' 00"
Sunlit
Object was in daylight at epoch
Visualization orbit readout
Latitude
Unknown
Longitude
Unknown
Altitude
Unknown
Speed
Unknown
Apparent Right ascension
Unknown
Apparent Declination
Unknown
Sunlit
N/A
Visualization observer readout
Local Sidereal Time
16:32:33
Azimuth
Unknown
Elevation
Unknown
Doppler factor
Unknown
Orbital elements
Apogee altitude
1,528.295 km
Perigee altitude
1,505.057 km
Semi-major axis
7,894.813 km
Eccentricity
0.00147
Inclination
102.3609°
RAAN
11.4612°
Arg. of periapsis
246.3589°
True anomaly
113.74713°
Mean anomaly
113.5927°
Eccentric anomaly
113.66993°
Mean motion
3.09407 °/min
Orbital period
116.35 mins
BSTAR
0.000086054
Loading maneuver chart data...
Computing Atmospheric mass density...
Loading historical data...
Loading historical data...
Loading historical data...
Loading historical data...
Loading historical data...
Loading historical data...
Loading historical data...

Documentation

Showing up to 5 results
|